Погода Остров Диксон

Погода Остров Диксон : погода сейчас, прогноз погоды и архив. Всё, что Вы хотите узнать о погоде Остров Диксон!

Хотите узнать прогноз погоды Остров Диксон? Тогда Вам сюда: Погода Остров Диксон

Поиск расширенной информации на нашем сайте:

Другие новости

Новости СМИ2

Главная страница сайта

Новости сайта

03.07.2017

Напоминаем, что на нашем специализированном сайте Метеоцентр.Азия вы можете получить высокодетализированные автоматические прогнозы погоды по пунктам России, СНГ и мира в авиационном формате (включающие направление и скорость ветра, видимость, явления погоды, количество и форму облачности, нижнюю и верхнюю границу облачности).


Погода Остров Диксон - сегодня

Время (UTC), дата Ветер
(°,м/с) 
Видим.   Явления Облачность Т
(°С)
Тd
(°С)
f(%) Тe
(°С)
Pmin
(гПа)
dP
(гПа)
Po
(мм)
O2
(г/м3)
Тmin Tmax R s Состояние
почвы
09 13.01.18 350 (С) 16-20{20}  1000 м  метель  9/0 средняя, верхняя 
[Ac trans|Ci fib]
-22.4 -24.8 81 -35  995  742  327           
12 13.01.18 360 (С) 13-16{20}  4000 м  метель  8/0 средняя, верхняя 
[Ac trans|Ci fib]
-22.3 -24.7 81 -34  997.1  2.1  743  328    -21.7       
15 13.01.18 030 (СВ) 7{16}  20000 м  позёмок  ясно 
-24.9 -27.4 80 -34  1001.4  4.2  746  333           
18 13.01.18 070 (В) 20000 м    ясно 
-27.9 -30.8 76 -33  1004.7  3.2  749  338           
21 13.01.18 050 (СВ) 20000 м    3/0 
-28.9 -32 74 -33  1007.4  750  340           
00 14.01.18 120 (ЮВ) 20000 м    ясно 
-29 -32 75 -33  1008  1.3  751  341  -30.3      40  неравномерный
сухой снег
100% 
03 14.01.18 190 (Ю) 20000 м    ясно 
-30.1 -33.3 74 -34  1008.2  0.1  751  342           
06 14.01.18 180 (Ю) 20000 м    ясно 
-30.4 -33.6 73 -36  1007.5  -0.7  751  342           
09 14.01.18 160 (Ю) 20000 м    ясно 
-31 -34.3 73 -38  1006.8  -0.7  750  343           
12 14.01.18 180 (Ю) 7-10{11}  4000 м  позёмок  9/0 средняя 
[Ac trans]
-28 -31 76 -38  1005.4  -1.3  749  338    -27.5       
15 14.01.18 160 (Ю) 8-12{13}  4000 м  позёмок  9/0 средняя 
[Ac trans]
-29.1 -32.2 74 -40  1004.1  -1.3  748  339           
18 14.01.18 170 (Ю) 11-15{15}  2000 м  метель  9/0 средняя 
[Ac trans]
-28 -31 76 -40  1002.6  -1.5  747  337           
21 14.01.18 170 (Ю) 11-15{15}  2000 м  метель  9/0 средняя 
[Ac trans]
-27.6 -30.5 76 -40  1002.6  747  337           
00 15.01.18 160 (Ю) 10-14{16}  2000 м  метель  9/0 средняя 
[Ac trans]
-28 -31 76 -40  1002.7  0.1  747  337  -29.1      40  неравномерный
сухой снег
100% 
03 15.01.18 180 (Ю) 10-13{16}  4000 м  метель  8/0 средняя, верхняя 
[Ac trans|Ci fib]
-28.1 -31.2 75 -40  1003  0.3  747  338           
06 15.01.18 170 (Ю) 9-12{15}  4000 м  метель  8/0 верхняя 
[Cs]
-26.5 -29.3 77 -37  1002.6  -0.4  747  335           
09 15.01.18 170 (Ю) 9-13{14}  4000 м  метель  8/0 верхняя 
[Cs]
-26.2 -29 77 -37  1002.7  0.2  747  335           
12 15.01.18 180 (Ю) 8-11{13}  20000 м  метель  8/0 верхняя 
[Cs]
-25.1 -27.8 78 -35  1002.9  0.2  747  333    -24.9       
15 15.01.18 180 (Ю) 6{12}  10 км  слаб. снег  10/0 средняя 
[As trans]
-24.7 -27.3 79 -33  1003.1  0.2  748  333           
18 15.01.18 180 (Ю) 20000 м  {снег}  8/0 средняя, верхняя 
[Ac trans|Ci fib]
-26 -28.8 77 -31  1004.3  1.2  748  335           
21 15.01.18 020 (С) 20000 м    9/0 средняя, верхняя 
[Ac trans|Ci fib]
-23.4 -25.8 81 -30  1005.7  1.4  749  332           
00 16.01.18 050 (СВ) 20000 м    6/0 средняя, верхняя 
[Ac trans|Ci fib]
-27.1 -30 76 -35  1007.7  1.9  751  338  -27.7    0.0  41  неравномерный
сухой снег
100% 
03 16.01.18 060 (СВ) 20000 м    ясно 
-31 -34.4 72 -39  1010.5  2.7  753  344  -31         
06 16.01.18 040 (СВ) 20000 м    ясно 
-30.4 -33.6 73 -39  1011.8  1.3  754  344           
09 16.01.18 030 (СВ) 20000 м  позёмок  ясно 
-28 -31 76 -38  1014.2  2.4  756  341           
Время (UTC), дата Ветер
(°,м/с) 
Видим.   Явления Облачность Т
(°С)
Тd
(°С)
f(%) Тe
(°С)
Pmin
(гПа)
dP
(гПа)
Po
(мм)
O2
(г/м3)
Тmin Tmax R s Состояние
почвы

Для получения пояснительной информации подведите курсор к названию столбца.

ПОГОДА Остров Диксон - архив

Всё, что Вы хотите узнать о погоде Остров Диксон - удобно и подробно!

Выберите нужную дату (начиная с 1 января 2015* года) и нажмите кнопку "Найти".
Будут отображены архивные сводки погоды по пункту Остров Диксон, начиная с указанной даты.


Отображать данные в формате CSV (для использования в таблицах Excel)


Внимание! Наш архив погоды предназначен исключительно для личного некоммерческого использования в познавательных целях. Если Вам необходимы официальные справки о состоянии погоды (для производственных, юридических, коммерческих и т.п. целей), обращайтесь в органы Росгидромета.

*Примечание: данная дата относится к архиву по метеостанциям СССР (Россия, СНГ, Балтия).
Архив по метеостанциям Зарубежной Европы и Азии (кроме Китая) хранится 10 дней, по другим регионам земного шара (Китай, Африка, Америка, Австралия, Океания) - 1 день.

Остров Диксон - район местоположения метеостанции


Название, широта, долгота, высота метеостанции:
Остров Диксон 73.5°ш. 80.4°д. 47 м над ур. моря [Российская Федерация]

Дополнительная информация

В oтличие oт бoльшинства пoгoдных сайтoв мы публикуем пoдрoбную метеoинфoрмацию в детальнoм прoфессиoнальнoм фoрмате.

Характеристики температуры и влажнoсти вoздуха измеряются на высoте 2 м в тени вдали oт зданий и деревьев.
Скoрoсть ветра измеряется на высoте 10 м (на урoвне рoста челoвека скoрoсть ветра ниже в 1.5-2 раза). Если метеoстанция нахoдится в гoрoде или в лесу, тo скoрoсть ветра занижена на 2-4 м/с пo сравнению с oткрытым местoм. Скoрoсть ветра над акватoриями крупных рек и oзёр, а также на вершинах хoлмoв на 2-5 м/с выше, чем в oбычных услoвиях.
Атмoсфернoе давление в разных тoчках местнoсти мoжет значительнo oтличаться oт давления на метеoстанции, в зависимoсти oт услoвий рельефа (при пoдъёме на 10 м давление пoнижается примернo на 1 мм рт.ст.).